Location: Caltech
(34.1382°N, 118.1253°W)
Time: 01:12:01
(UTC-07:00)

Courier 1B - Visible Passes

Search period start: 29 April 2016 00:00
Search period end: 09 May 2016 00:00
Orbit: 963 x 1209 km, 28.3° (Epoch: 28 April)

Date Brightness Start Highest point End Pass type
(mag) Time Alt. Az. Time Alt. Az. Time Alt. Az.
29 Apr 8.1 03:39:12 45° S 03:39:29 45° SSE 03:46:07 10° E visible
29 Apr 8.0 05:26:20 10° WSW 05:33:20 54° S 05:39:54 10° ESE visible
30 Apr 9.0 02:48:33 29° ESE 02:48:33 29° ESE 02:52:21 10° E visible
30 Apr 7.9 04:35:25 25° WSW 04:39:35 55° S 04:46:19 10° ESE visible
01 May 9.9 01:57:55 12° E 01:57:55 12° E 01:58:29 10° E visible
01 May 7.9 03:44:47 50° SSW 03:45:48 53° S 03:52:40 10° E visible
01 May 8.1 05:32:43 10° W 05:39:41 50° S 05:46:14 10° ESE visible
02 May 8.5 02:54:11 39° SE 02:54:11 39° SE 02:58:58 10° E visible
02 May 7.9 04:41:03 21° WSW 04:45:57 54° S 04:52:43 10° ESE visible
03 May 9.7 02:03:35 17° ESE 02:03:35 17° ESE 02:05:12 10° E visible
03 May 7.9 03:50:27 46° SW 03:52:09 56° S 03:59:07 10° ESE visible
04 May 8.2 02:59:56 47° SE 02:59:56 47° SE 03:05:27 10° ESE visible
04 May 8.1 04:46:49 17° WSW 04:52:15 47° SSW 04:58:57 10° ESE visible
05 May 9.4 02:09:27 21° ESE 02:09:27 21° ESE 02:11:43 10° E visible
05 May 7.9 03:56:21 41° SW 03:58:29 52° S 04:05:27 10° ESE visible
06 May 8.1 03:05:59 49° SSE 03:05:59 49° SSE 03:11:50 10° ESE visible
06 May 8.4 04:52:53 15° WSW 04:58:29 37° SSW 05:04:55 10° SE visible
07 May 9.4 02:15:43 22° ESE 02:15:43 22° ESE 02:18:08 10° ESE visible
07 May 8.1 04:02:38 36° SW 04:04:45 43° SSW 04:11:34 10° SE visible
07 May 9.5 21:24:34 10° S 21:26:16 14° S 21:26:16 14° S visible
08 May 8.3 03:12:31 43° SSE 03:12:31 43° SSE 03:18:04 10° ESE visible
08 May 8.7 04:59:27 13° WSW 05:04:36 26° SSW 05:10:26 10° SSE visible
08 May 9.4 20:32:44 10° S 20:35:39 12° SSE 20:37:01 12° SE visible
08 May 9.6 22:22:21 10° SW 22:24:00 16° SSW 22:24:00 16° SSW visible
